Buckland, AK

5:55 PM AKST on February 21, 2017 (GMT -0900)
Buckland

Weather History for PABL - June, 2013

Change the Weather History Date:

Thursday, June 20, 2013

  Actual Average (PASK) Record (PASK)
Temperature  
Mean Temperature 66 °F -  
Max Temperature 75 °F 58 °F 77 °F (2015)
Min Temperature 57 °F 44 °F 37 °F (1999)
Cooling Degree Days 1    
Growing Degree Days 16 (Base 50)    
Moisture  
Dew Point 50 °F    
Average Humidity 58    
Maximum Humidity 88    
Minimum Humidity 34    
Precipitation  
Precipitation 0.00 in - - ()
Sea Level Pressure  
Sea Level Pressure 29.81 in    
Wind  
Wind Speed 9 mph (SSE)    
Max Wind Speed 18 mph    
Max Gust Speed 24 mph    
Visibility 9 miles    
Events      
Averages and records for this station are not official NWS values.
T = Trace of Precipitation, MM = Missing Value Source: NWS Daily Summary

Daily Weather History Graph

Daily Weather History Graph

Search for Another Location

Airport or City:

Trip Planner

Search our weather history database for the weather conditions in past years. The results will help you decide how hot, cold, wet, or windy it might be!

Date:

Astronomy

Jun. 20, 2013 Rise Set
Actual Time 3:18 AM AKDT 2:13 AM AKDT
Civil Twilight Sun does not rise Sun does not rise
Nautical Twilight Sun does not rise Sun does not rise
Astronomical Twilight Sun does not rise Sun does not rise
Moon 9:52 PM AKDT (6/20) 2:54 AM AKDT (6/20)
Length of Visible Light 24h 00m
Length of Day
22h 55m
Waxing Gibbous, 90% of the Moon is Illuminated
Jun 20
Waxing Gibbous
Jun 23
Full
Jun 29
Last Quarter
Jul 7
New
Jul 15
First Quarter

Hourly Weather History & Observations

Time (AKDT) Temp. Dew Point Humidity Pressure Visibility Wind Dir Wind Speed Gust Speed Precip Events Conditions
12:56 AM 66.2 °F 51.8 °F 60% 29.69 in 9.0 mi SE 4.6 mph - N/A   Clear
1:16 AM 64.4 °F 51.8 °F 64% 29.70 in 7.0 mi Calm Calm - N/A   Clear
1:36 AM 64.4 °F 51.8 °F 64% 29.70 in 5.0 mi ESE 8.1 mph - N/A   Partly Cloudy
1:56 AM 64.4 °F 51.8 °F 64% 29.71 in 4.0 mi East 5.8 mph - N/A   Partly Cloudy
2:16 AM 62.6 °F 51.8 °F 68% 29.71 in 4.0 mi SE 10.4 mph - N/A   Clear
2:36 AM 62.6 °F 51.8 °F 68% 29.72 in 4.0 mi SSE 6.9 mph - N/A   Clear
2:56 AM 62.6 °F 51.8 °F 68% 29.73 in 5.0 mi SE 8.1 mph - N/A   Mostly Cloudy
3:16 AM 62.6 °F 51.8 °F 68% 29.73 in 6.0 mi ESE 10.4 mph - N/A   Mostly Cloudy
3:36 AM 60.8 °F 51.8 °F 72% 29.74 in 10.0 mi ESE 5.8 mph - N/A   Partly Cloudy
3:56 AM 59.0 °F 53.6 °F 82% 29.74 in 10.0 mi SE 4.6 mph - N/A   Clear
4:16 AM 59.0 °F 53.6 °F 82% 29.74 in 10.0 mi ESE 5.8 mph - N/A   Clear
4:36 AM 57.2 °F 51.8 °F 82% 29.75 in 10.0 mi SE 9.2 mph - N/A   Clear
4:56 AM 57.2 °F 51.8 °F 82% 29.76 in 10.0 mi ESE 11.5 mph 17.3 mph N/A   Clear
5:16 AM 57.2 °F 53.6 °F 88% 29.76 in 10.0 mi SE 11.5 mph - N/A   Clear
5:36 AM 59.0 °F 53.6 °F 82% 29.77 in 10.0 mi SSE 5.8 mph - N/A   Clear
5:56 AM 59.0 °F 53.6 °F 82% 29.77 in 10.0 mi SE 10.4 mph - N/A   Clear
6:16 AM 59.0 °F 53.6 °F 82% 29.77 in 10.0 mi SE 5.8 mph - N/A   Clear
6:36 AM 59.0 °F 53.6 °F 82% 29.78 in 10.0 mi ESE 11.5 mph 17.3 mph N/A   Clear
6:56 AM 59.0 °F 53.6 °F 82% 29.79 in 10.0 mi ESE 9.2 mph - N/A   Clear
7:16 AM 60.8 °F 53.6 °F 77% 29.79 in 10.0 mi ESE 8.1 mph - N/A   Clear
7:36 AM 60.8 °F 53.6 °F 77% 29.80 in 10.0 mi SE 10.4 mph - N/A   Clear
7:56 AM 60.8 °F 53.6 °F 77% 29.81 in 10.0 mi SE 12.7 mph 18.4 mph N/A   Clear
8:16 AM 60.8 °F 53.6 °F 77% 29.81 in 10.0 mi SE 11.5 mph - N/A   Clear
8:36 AM 62.6 °F 53.6 °F 72% 29.81 in 10.0 mi SE 9.2 mph - N/A   Clear
8:56 AM 62.6 °F 53.6 °F 72% 29.82 in 10.0 mi SE 11.5 mph - N/A   Clear
9:16 AM 64.4 °F 53.6 °F 68% 29.83 in 10.0 mi SE 10.4 mph - N/A   Clear
9:36 AM 64.4 °F 55.4 °F 73% 29.83 in 10.0 mi SE 13.8 mph - N/A   Partly Cloudy
9:56 AM 64.4 °F 55.4 °F 73% 29.83 in 9.0 mi SE 15.0 mph - N/A   Clear
10:16 AM 66.2 °F 55.4 °F 68% 29.83 in 8.0 mi SSE 8.1 mph - N/A   Clear
10:36 AM 69.8 °F 53.6 °F 56% 29.84 in 10.0 mi South 12.7 mph 24.2 mph N/A   Clear
10:56 AM 68.0 °F 53.6 °F 60% 29.84 in 9.0 mi SSE 15.0 mph - N/A   Clear
11:16 AM 69.8 °F 51.8 °F 53% 29.84 in 10.0 mi SSE 12.7 mph - N/A   Clear
11:36 AM 69.8 °F 51.8 °F 53% 29.85 in 10.0 mi SSE 11.5 mph 17.3 mph N/A   Clear
11:56 AM 69.8 °F 51.8 °F 53% 29.85 in 10.0 mi South 11.5 mph 16.1 mph N/A   Clear
12:16 PM 69.8 °F 48.2 °F 46% 29.86 in 10.0 mi South 9.2 mph - N/A   Clear
12:36 PM 69.8 °F 46.4 °F 43% 29.86 in 10.0 mi SSE 9.2 mph - N/A   Clear
12:56 PM 71.6 °F 46.4 °F 41% 29.86 in 10.0 mi South 9.2 mph - N/A   Clear
1:16 PM 71.6 °F 44.6 °F 38% 29.86 in 10.0 mi SSW 12.7 mph 16.1 mph N/A   Clear
1:36 PM 71.6 °F 46.4 °F 41% 29.87 in 10.0 mi SSW 11.5 mph 16.1 mph N/A   Clear
1:56 PM 71.6 °F 46.4 °F 41% 29.87 in 10.0 mi South 6.9 mph 18.4 mph N/A   Clear
2:16 PM 71.6 °F 46.4 °F 41% 29.87 in 10.0 mi South 6.9 mph - N/A   Clear
2:36 PM 71.6 °F 46.4 °F 41% 29.87 in 10.0 mi South 8.1 mph 16.1 mph N/A   Clear
2:56 PM 73.4 °F 46.4 °F 38% 29.87 in 10.0 mi SSW 10.4 mph - N/A   Clear
3:16 PM 73.4 °F 44.6 °F 36% 29.86 in 10.0 mi SSW 13.8 mph 19.6 mph N/A   Clear
3:36 PM 73.4 °F 44.6 °F 36% 29.87 in 10.0 mi South 12.7 mph 18.4 mph N/A   Clear
3:56 PM 73.4 °F 44.6 °F 36% 29.86 in 10.0 mi South 18.4 mph 23.0 mph N/A   Clear
4:16 PM 73.4 °F 44.6 °F 36% 29.86 in 10.0 mi South 13.8 mph 19.6 mph N/A   Clear
4:36 PM 73.4 °F 44.6 °F 36% 29.86 in 10.0 mi SSW 11.5 mph 16.1 mph N/A   Clear
4:56 PM 75.2 °F 44.6 °F 34% 29.86 in 10.0 mi South 12.7 mph 19.6 mph N/A   Clear
5:16 PM 73.4 °F 44.6 °F 36% 29.86 in 10.0 mi SW 13.8 mph 17.3 mph N/A   Clear
5:36 PM 73.4 °F 44.6 °F 36% 29.85 in 10.0 mi WSW 16.1 mph 20.7 mph N/A   Partly Cloudy
5:56 PM 73.4 °F 44.6 °F 36% 29.85 in 10.0 mi South 10.4 mph 17.3 mph N/A   Clear
6:16 PM 73.4 °F 44.6 °F 36% 29.85 in 10.0 mi SW 12.7 mph 18.4 mph N/A   Clear
6:36 PM 73.4 °F 44.6 °F 36% 29.85 in 10.0 mi WSW 9.2 mph 18.4 mph N/A   Clear
6:56 PM 73.4 °F 44.6 °F 36% 29.85 in 10.0 mi SW 12.7 mph 17.3 mph N/A   Partly Cloudy
7:16 PM 73.4 °F 44.6 °F 36% 29.85 in 10.0 mi SSW 8.1 mph - N/A   Scattered Clouds
7:36 PM 71.6 °F 44.6 °F 38% 29.85 in 10.0 mi SW 9.2 mph - N/A   Mostly Cloudy
7:56 PM 71.6 °F 44.6 °F 38% 29.85 in 10.0 mi SW 6.9 mph - N/A   Mostly Cloudy
11:56 PM 62.6 °F 46.4 °F 55% 29.87 in 10.0 mi ENE 4.6 mph - N/A   Mostly Cloudy